Погода в Сан-Леополду

Бразилия     29°46′18″S   51°08′58″W
темп.,
°C
ветер,
м/с
пор.,
м/с
влажн.,
%
обл.,
%
осадки,
мм/ч
давл.,
гПа
погр.,
м
27 февраля, сб
сб2700:00+22в47720 0.0 1018446
03:00+21в25790 0.0 1017285
06:00+20в14840 0.0 1018255
09:00+25вюв25688 0.0 1020639
12:00+29вюв565028 0.1 10201462
15:00+30вюв684726 0.3 10181562
18:00+27вюв6105315 0.1 10181185
21:00+24в511658 0.1 10191095
28 февраля, вс
вс2800:00+22в410700 0.0 1019824
03:00+21всв26770 0.0 1018471
06:00+20в26810 0.0 1018368
09:00+25в47610 0.0 10191147
12:00+29вюв464337 0.0 10181791
15:00+29вюв695025 0.0 10151446
18:00+26вюв6106315 0.0 10141025
21:00+24вюв5127319 0.0 1015891
1 марта, пн
пн100:00+23в4107523 0.0 1014781
03:00+22в268311 0.0 1012388
06:00+21всв13865 0.0 1013276
09:00+26в13645 0.0 1013572
12:00+32юв22420 0.0 10121532
15:00+31юв554826 0.1 10111606
18:00+28вюв586130 0.1 10101088
21:00+25вюв377516 0.1 1012511
2 марта, вт
вт200:00+23вюв25860 0.0 1012297
03:00+22всв128923 0.0 1011222
06:00+21всв128773 0.0 1012186
09:00+27в126338 0.0 1013555
12:00+32юв224576 0.0 10131352
15:00+32ююв454757 0.1 10111615
18:00+29юв576151 0.1 10111023
21:00+25вюв497325 0.1 1014657
3 марта, ср
ср300:00+24вюв38800 0.0 1014504
03:00+22вюв24873 0.0 1014253
06:00+22вюв238916 0.0 1014257
09:00+26вюв237236 0.0 1016597
12:00+32юв224832 0.0 10151286
15:00+32юв454936 0.0 10131409
18:00+29вюв465541 0.0 10131122
21:00+25вюв487020 0.0 1015493